Regional Weather Roundup
Issued by NWS

Home | Current Version | Previous Version | Text Only | Print | Product List | Glossary Off
Versions: 1 2 3 4 5 6 7 8 9 10 11 12 13 14 15 16 17 18 19 20 21 22 23 24 25 26 27 28 29 30 31 32 33 34 35 36 37 38 39 40 41 42 43 44 45 46 47 48 49 50

000
ASUS43 KDTX 231910
RWRMI
MICHIGAN HOURLY REGIONAL WEATHER ROUNDUP
NATIONAL WEATHER SERVICE DETROIT/PONTIAC MI
300 PM EDT SAT MAY 23 2015

NOTE: "FAIR" INDICATES FEW OR NO CLOUDS BELOW 12,000 FEET WITH NO
SIGNIFICANT WEATHER AND/OR OBSTRUCTION TO VISIBILITY.

MIZ047>049-052>055-059>063-066>070-074>076-081>083-232000-
SOUTHEAST LOWER MICHIGAN

CITY           SKY/WX    TMP DP  RH WIND       PRES   REMARKS
ADRIAN         SUNNY     73  31  21 W7        30.35F
ALMA           SUNNY     74  33  22 W9G17     30.31F
ANN ARBOR      SUNNY     73  38  27 MISG      30.35F
BAD AXE        SUNNY     72  33  24 W14       30.31F
CARO           SUNNY     74  40  29 SW10G17   30.31F
DETROIT CITY   SUNNY     71  38  29 SW12G17   30.35F
DETROIT        MOSUNNY   74  36  25 S9        30.35F
FLINT          SUNNY     75  35  23 W12G17    30.33F
GROSSE ILE     SUNNY     66  43  42 SE8       30.35F
HILLSDALE      SUNNY     75  35  22 W9        30.35S
HOWELL         SUNNY     73  31  21 S5        30.34F

CITY           SKY/WX    TMP DP  RH WIND       PRES   REMARKS
JACKSON        SUNNY     73  36  25 VRB5      30.34F
LAMBERTVILLE   SUNNY     75  34  22 W5        30.35F
LANSING        SUNNY     74  34  23 W9        30.34F
LAPEER         FAIR      74  32  21 W9        30.33S
MASON          SUNNY     71  34  25 CALM      30.34F
MT. CLEMENS    MOSUNNY   70  41  34 S16       30.33F
PONTIAC        MOSUNNY   71  33  24 VRB3      30.33F
PORT HOPE        N/A     72  36  26 W10G21    30.29F
PORT HURON     SUNNY     70  41  35 S14       30.35S
TRI CITIES     SUNNY     76  33  21 SW15G21   30.30F
MIDLAND        FAIR      76  34  21 SW14G20   30.29F
TROY           SUNNY     74  33  23 SW6       30.35F
SAGINAW HB     SUNNY     77  32  19 SW9G16    30.30F
$$
MIZ043>046-050>051-056>058-064>065-071>073-077>080-232000-
SOUTHWEST LOWER MICHIGAN

CITY           SKY/WX    TMP DP  RH WIND       PRES   REMARKS
BATTLE CREEK   SUNNY     74  35  24 SW8       30.34F
BENTON HARBOR  SUNNY     75  43  31 W7        30.31F
BIG RAPIDS     SUNNY     74  25  16 SW12G21   30.29F
COLDWATER      SUNNY     74  36  25 CALM      30.33F
FREMONT        FAIR      75  26  16 W10       30.31S
HOLLAND        SUNNY     75  41  29 W10       30.33S
GRAND RAPIDS   MOSUNNY   75  36  24 SW14      30.33S
IONIA          FAIR      75  30  19 W3        30.32S
KALAMAZOO      SUNNY     75  35  23 VRB7      30.33F
LUDINGTON      SUNNY     66  31  27 SW15G21   30.33R
MARSHALL       SUNNY     76  36  23 W12G17    30.33F
MOUNT PLEASANT SUNNY     76  35  22 W10       30.30F
MUSKEGON       MOSUNNY   72  27  18 SW10      30.33F
SOUTH HAVEN    SUNNY     75  34  22 W7        30.31F
$$
MIZ016>042-232000-
NORTHERN LOWER MICHIGAN

CITY           SKY/WX    TMP DP  RH WIND       PRES   REMARKS
ALPENA         SUNNY     77  33  20 W15G23    30.23F
BEAVER ISLAND  SUNNY     64  31  28 SW17G23   30.25S
BELLAIRE       SUNNY     73  32  22 SW10G22   30.27S
CADILLAC       SUNNY     74  35  24 SW10G21   30.28F
CHARLEVOIX     SUNNY     70  34  26 SW18G29   30.29S
FRANKFORT      SUNNY     66  24  20 SW12G20   30.31S
GAYLORD        SUNNY     72  29  20 W18G30    30.26F
GRAYLING       SUNNY     75  34  22 W10G20    30.27F
HARBOR SPRINGS SUNNY     67  34  29 W13G20    30.25F
HOUGHTON LAKE  SUNNY     73  34  23 W10G18    30.28F
MANISTEE       SUNNY     72  30  21 SW13G20   30.32R
OSCODA         SUNNY     76  36  23 SW14G20   30.25F
PELLSTON       SUNNY     70  29  21 W21G33    30.25F
ROGERS CITY    SUNNY     76  37  24 SW16      30.23F
TRAVERSE CITY  MOSUNNY   75  35  23 SW12G25   30.26F
$$
MIZ007>008-015-232000-
EASTERN UPPER MICHIGAN

CITY           SKY/WX    TMP DP  RH WIND       PRES   REMARKS
KINROSS        SUNNY     70  36  28 W16G29    30.19S
MACKINAC ISLAN SUNNY     58  34  41 SW17G32   30.24S
NEWBERRY       SUNNY     73  40  30 SW21G26   30.18S
S. S. MARIE    MOSUNNY   72  36  26 SW18G26   30.16F
MUNISING         N/A     70  37  29 N8        30.15S
$$
MIZ004>006-011>014-085-232000-
CENTRAL UPPER MICHIGAN

CITY           SKY/WX    TMP DP  RH WIND       PRES   REMARKS
MANISTIQUE     SUNNY     52  38  59 S15G21    30.22F
ESCANABA       SUNNY     66  41  39 S15G23    30.20S
MENOMINEE      SUNNY     75  43  31 SW15G22   30.22S
SAWYER-GWINN   MOSUNNY   77  36  22 SW12G22   30.17F
$$
MIZ001>003-009>011-084-232000-
WESTERN UPPER MICHIGAN

CITY           SKY/WX    TMP DP  RH WIND       PRES   REMARKS
IRON MOUNTAIN  SUNNY     77  32  19 W3        30.19F
HOUGHTON       SUNNY     75  36  24 W23       30.16S
COPPER HARBOR    N/A     78  37  22 NW12G21   30.10S
IRONWOOD       MOSUNNY   73  39  29 SW6       30.16S
$$

ABBREVIATIONS USED IN REMARKS
   TC - TEMPERATURE IN CELSIUS
  WCI - WIND CHILL INDEX
   HX - HEAT INDEX
  VSB - VISIBILITY




USA.gov is the U.S. government's official web portal to all federal, state and local government web resources and services.